Content
SEND FEEDBACK

Daily
Averages
Monthly
Summary
Kenya

MBAGATHI, KENYA


Home > Africa > Kenya
Elevation: 5899 feet     Latitude: 01 18S     Longitude: 036 48E

WEATHER
 
SELECT A DAY
Number of Records: 33,271;   Date Range: 9/29/96 - 8/19/14
 
SHARE

PRINT THIS DATA

[ ← Previous Day ]
WEATHER ALMANAC - JANUARY 31, 2013
[ Next Day → ]
[ °C ]   °F
Weather ElementAverageHighLow
Temperature69.5 °F80.6 °F (2:00 pm)60.8 °F (6:00 am)
Dewpoint60 °F62.6 °F (1:00 am)57.2 °F (5:00 pm)
Humidity74.3 %100 % (1:00 am)48 % (2:00 pm)
Barometer30.07 in30.15 in (1:00 am)30.01 in (3:00 pm)
Wind Speed3.9 mph13.8 mph (1:00 pm)
Weather ElementAverage
Visibility5.8 mi
Wind DirectionNE (46.8 °)

Weather ElementTotal
Precipitation---
Cooling Degree Days5.7 (Base 65)
Growing Degree Days20.7 (Base 50)
Averaged from 19 records on January 31, 2013
WEATHER CONDITIONS BREAKOUT
WIND DIRECTION BREAKOUT
WEATHER BY HOUR - JANUARY 31, 2013
[ °C ]   °F
Local TimeTemperatureDewpointHumidityBarometerVisibilityWind DirectionWind SpeedGust SpeedPrecipitationEventsConditions
1:00 AM62.6 °F62.6 °F100 %30.15 in6.2 miCalmMostly Cloudy
2:00 AM62.6 °F60.8 °F94 %30.12 in5.6 miCalmRainRain
4:00 AM62.6 °F60.8 °F94 %30.12 in5.6 miWSW (240°)6.9 mphRainLight Rain
5:00 AM62.6 °F59.0 °F88 %30.09 in6.2 miCalmMostly Cloudy
6:00 AM60.8 °F60.8 °F100 %30.09 in6.2 miCalmMostly Cloudy
7:00 AM62.6 °F59.0 °F88 %30.09 in3.7 miCalmHaze
9:00 AM64.4 °F59.0 °F83 %30.09 in5.0 miCalmHaze
10:00 AM68.0 °F60.8 °F78 %30.09 in5.6 miCalmHaze
11:00 AM71.6 °F60.8 °F69 %30.09 in5.6 miENE (60°)9.2 mphHaze
12:00 PM75.2 °F59.0 °F57 %30.09 in5.6 miENE (60°)5.8 mphHaze
1:00 PM78.8 °F60.8 °F54 %30.06 in5.6 miEast (90°)13.8 mphHaze
2:00 PM80.6 °F59.0 °F48 %30.04 in6.2 miENE (70°)11.5 mphScattered Clouds
3:00 PM77.0 °F59.0 °F54 %30.01 in6.2 miCalmMostly Cloudy
4:00 PM77.0 °F59.0 °F54 %30.01 in6.2 miNNW (330°)5.8 mphScattered Clouds
5:00 PM77.0 °F57.2 °F50 %30.01 in6.2 miNNE (30°)11.5 mphMostly Cloudy
6:00 PM75.2 °F59.0 °F57 %30.01 in6.2 miNorth (10°)5.8 mphMostly Cloudy
8:00 PM69.8 °F60.8 °F73 %30.06 in6.2 miCalmMostly Cloudy
9:00 PM66.2 °F60.8 °F83 %30.06 in6.2 miCalmScattered Clouds
10:00 PM66.2 °F62.6 °F88 %30.09 inNorthScattered Clouds
Hourly data recorded from HKNW, located miles away from Mbagathi, Kenya







STORIES FROM OUR PARTNERS